TimeCST,TemperatureF,Dew PointF,Humidity,Sea Level PressureIn,VisibilityMPH,Wind Direction,Wind SpeedMPH,Gust SpeedMPH,PrecipitationIn,Events,Conditions,WindDirDegrees,DateUTC
12:15 AM,30.2,21.2,69,30.20,10.0,SE,3.5,-,N/A,,Clear,140,2013-02-02 06:15:00
12:35 AM,30.2,23.0,75,30.20,10.0,Calm,Calm,-,N/A,,Clear,0,2013-02-02 06:35:00
12:55 AM,28.4,23.0,80,30.20,10.0,Calm,Calm,-,N/A,,Clear,0,2013-02-02 06:55:00
1:15 AM,28.4,23.0,80,30.20,10.0,Calm,Calm,-,N/A,,Clear,0,2013-02-02 07:15:00
1:35 AM,28.4,21.2,74,30.20,10.0,Calm,Calm,-,N/A,,Clear,0,2013-02-02 07:35:00
1:55 AM,28.4,23.0,80,30.20,10.0,Calm,Calm,-,N/A,,Clear,0,2013-02-02 07:55:00
2:15 AM,28.4,21.2,74,30.20,10.0,Calm,Calm,-,N/A,,Clear,0,2013-02-02 08:15:00
2:35 AM,28.4,23.0,80,30.20,10.0,Calm,Calm,-,N/A,,Clear,0,2013-02-02 08:35:00
2:55 AM,28.4,23.0,80,30.19,10.0,Calm,Calm,-,N/A,,Clear,0,2013-02-02 08:55:00
3:15 AM,28.4,23.0,80,30.19,10.0,Calm,Calm,-,N/A,,Clear,0,2013-02-02 09:15:00
3:35 AM,26.6,23.0,86,30.19,10.0,Calm,Calm,-,N/A,,Clear,0,2013-02-02 09:35:00
3:55 AM,28.4,24.8,86,30.19,10.0,Calm,Calm,-,N/A,,Clear,0,2013-02-02 09:55:00
4:15 AM,26.6,23.0,86,30.19,10.0,Calm,Calm,-,N/A,,Clear,0,2013-02-02 10:15:00
4:35 AM,26.6,23.0,86,30.19,10.0,Calm,Calm,-,N/A,,Clear,0,2013-02-02 10:35:00
4:55 AM,26.6,23.0,86,30.19,10.0,Calm,Calm,-,N/A,,Scattered Clouds,0,2013-02-02 10:55:00
5:15 AM,28.4,24.8,86,30.19,10.0,Calm,Calm,-,N/A,,Scattered Clouds,0,2013-02-02 11:15:00
5:35 AM,28.4,26.6,93,30.19,10.0,Calm,Calm,-,N/A,,Mostly Cloudy,0,2013-02-02 11:35:00
5:55 AM,28.4,28.4,100,30.19,10.0,Calm,Calm,-,N/A,,Overcast,0,2013-02-02 11:55:00
6:15 AM,30.2,28.4,93,30.19,10.0,Calm,Calm,-,N/A,,Overcast,0,2013-02-02 12:15:00
6:35 AM,30.2,26.6,86,30.19,10.0,Calm,Calm,-,N/A,,Scattered Clouds,0,2013-02-02 12:35:00
6:55 AM,30.2,28.4,93,30.20,10.0,Calm,Calm,-,N/A,,Clear,0,2013-02-02 12:55:00
7:15 AM,30.2,28.4,93,30.20,10.0,Calm,Calm,-,N/A,,Mostly Cloudy,0,2013-02-02 13:15:00
7:35 AM,30.2,28.4,93,30.21,10.0,Calm,Calm,-,N/A,,Overcast,0,2013-02-02 13:35:00
7:55 AM,32.0,28.4,87,30.22,10.0,Calm,Calm,-,N/A,,Mostly Cloudy,0,2013-02-02 13:55:00
8:15 AM,32.0,28.4,87,30.23,10.0,Calm,Calm,-,N/A,,Overcast,0,2013-02-02 14:15:00
8:35 AM,32.0,30.2,93,30.23,10.0,Calm,Calm,-,N/A,,Mostly Cloudy,0,2013-02-02 14:35:00
8:55 AM,33.8,30.2,87,30.23,10.0,Calm,Calm,-,N/A,,Scattered Clouds,0,2013-02-02 14:55:00
9:15 AM,35.6,30.2,81,30.24,10.0,Calm,Calm,-,N/A,,Clear,0,2013-02-02 15:15:00
9:35 AM,37.4,30.2,75,30.26,10.0,West,5.8,-,N/A,,Mostly Cloudy,270,2013-02-02 15:35:00
9:55 AM,41.0,28.4,61,30.27,10.0,West,4.6,-,N/A,,Mostly Cloudy,270,2013-02-02 15:55:00
10:15 AM,41.0,28.4,61,30.28,10.0,NW,3.5,-,N/A,,Scattered Clouds,310,2013-02-02 16:15:00
10:35 AM,42.8,26.6,53,30.27,10.0,Calm,Calm,-,N/A,,Clear,0,2013-02-02 16:35:00
10:55 AM,42.8,26.6,53,30.27,10.0,Calm,Calm,-,N/A,,Clear,0,2013-02-02 16:55:00
11:15 AM,44.6,28.4,53,30.27,10.0,Calm,Calm,-,N/A,,Clear,0,2013-02-02 17:15:00
11:35 AM,46.4,28.4,50,30.27,10.0,Calm,Calm,-,N/A,,Clear,0,2013-02-02 17:35:00
11:55 AM,46.4,28.4,50,30.26,10.0,Calm,Calm,-,N/A,,Clear,0,2013-02-02 17:55:00
12:15 PM,48.2,28.4,46,30.26,10.0,Calm,Calm,-,N/A,,Clear,0,2013-02-02 18:15:00
12:35 PM,50.0,30.2,47,30.25,10.0,NNW,3.5,-,N/A,,Clear,330,2013-02-02 18:35:00
12:55 PM,50.0,30.2,47,30.24,10.0,Calm,Calm,-,N/A,,Clear,0,2013-02-02 18:55:00
1:15 PM,50.0,30.2,47,30.24,10.0,West,6.9,-,N/A,,Clear,260,2013-02-02 19:15:00
1:35 PM,50.0,30.2,47,30.23,10.0,Calm,Calm,-,N/A,,Clear,0,2013-02-02 19:35:00
1:55 PM,51.8,32.0,47,30.23,10.0,West,8.1,-,N/A,,Clear,270,2013-02-02 19:55:00
2:15 PM,51.8,32.0,47,30.22,10.0,NW,5.8,-,N/A,,Clear,310,2013-02-02 20:15:00
2:35 PM,53.6,32.0,44,30.22,10.0,NW,5.8,-,N/A,,Clear,320,2013-02-02 20:35:00
2:55 PM,53.6,32.0,44,30.22,10.0,NW,9.2,-,N/A,,Clear,320,2013-02-02 20:55:00
3:15 PM,53.6,32.0,44,30.22,10.0,WSW,8.1,-,N/A,,Clear,250,2013-02-02 21:15:00
3:35 PM,53.6,32.0,44,30.22,10.0,WSW,5.8,-,N/A,,Clear,240,2013-02-02 21:35:00
3:55 PM,53.6,32.0,44,30.23,10.0,West,5.8,-,N/A,,Clear,280,2013-02-02 21:55:00
4:15 PM,53.6,32.0,44,30.23,10.0,WSW,8.1,-,N/A,,Clear,250,2013-02-02 22:15:00
4:35 PM,53.6,32.0,44,30.23,10.0,West,5.8,-,N/A,,Clear,270,2013-02-02 22:35:00
4:55 PM,53.6,32.0,44,30.23,10.0,West,4.6,-,N/A,,Clear,260,2013-02-02 22:55:00
5:15 PM,53.6,32.0,44,30.23,10.0,WSW,4.6,-,N/A,,Clear,250,2013-02-02 23:15:00
5:55 PM,46.4,32.0,57,30.23,10.0,SW,3.5,-,N/A,,Clear,230,2013-02-02 23:55:00
6:15 PM,44.6,32.0,61,30.23,10.0,SW,3.5,-,N/A,,Clear,220,2013-02-03 00:15:00
6:55 PM,44.6,32.0,61,30.22,10.0,SSW,5.8,-,N/A,,Clear,210,2013-02-03 00:55:00
7:15 PM,46.4,32.0,57,30.22,10.0,SW,4.6,-,N/A,,Clear,220,2013-02-03 01:15:00
7:35 PM,44.6,32.0,61,30.22,10.0,SSW,5.8,-,N/A,,Clear,210,2013-02-03 01:35:00
7:55 PM,42.8,32.0,66,30.22,10.0,Calm,Calm,-,N/A,,Clear,0,2013-02-03 01:55:00
8:15 PM,42.8,32.0,66,30.22,10.0,SW,4.6,-,N/A,,Clear,230,2013-02-03 02:15:00
8:35 PM,42.8,32.0,66,30.23,10.0,WSW,4.6,-,N/A,,Clear,240,2013-02-03 02:35:00
8:55 PM,42.8,32.0,66,30.23,10.0,SW,5.8,-,N/A,,Clear,230,2013-02-03 02:55:00
9:15 PM,44.6,32.0,61,30.23,10.0,West,3.5,-,N/A,,Clear,260,2013-02-03 03:15:00
9:35 PM,42.8,32.0,66,30.23,10.0,WSW,4.6,-,N/A,,Clear,240,2013-02-03 03:35:00
9:55 PM,41.0,32.0,70,30.23,10.0,WSW,3.5,-,N/A,,Clear,240,2013-02-03 03:55:00
10:15 PM,41.0,32.0,70,30.23,10.0,Calm,Calm,-,N/A,,Clear,0,2013-02-03 04:15:00
10:35 PM,41.0,32.0,70,30.23,10.0,WSW,4.6,-,N/A,,Clear,240,2013-02-03 04:35:00
10:55 PM,41.0,32.0,70,30.23,10.0,WSW,4.6,-,N/A,,Clear,250,2013-02-03 04:55:00
11:15 PM,41.0,32.0,70,30.23,10.0,WSW,5.8,-,N/A,,Clear,240,2013-02-03 05:15:00
11:35 PM,42.8,32.0,66,30.22,10.0,WSW,8.1,-,N/A,,Clear,240,2013-02-03 05:35:00
11:55 PM,42.8,32.0,66,30.22,10.0,WSW,6.9,-,N/A,,Clear,250,2013-02-03 05:55:00